Total_Precipitation_Accumulation
0.07 0.09 0.05 0.00 0.00 0.00 0.00 0.00 0.00 0.00 0.00 0.00 0.00 0.00 0.00 0.00 0.01 0.01 0.01 0.02 0.03 0.02 0.01 0.02 0.01 0.01 0.01 0.01 0.01 0.00 0.00 0.00 0.01
0.07 0.01 0.00 0.00 0.00 0.00 0.00 0.00 0.00 0.00 0.00 0.00 0.00 0.00 0.00 0.00 0.00 0.01 0.01 0.03 0.04 0.03 0.03 0.02 0.00 0.01 0.01 0.01 0.01 0.01 0.01 0.01 0.00
0.18 0.01 0.00 0.00 0.00 0.00 0.00 0.00 0.00 0.00 0.00 0.00 0.00 0.00 0.00 0.00 0.00 0.01 0.02 0.04 0.03 0.01 0.01 0.01 0.00 0.00 0.01 0.01 0.00 0.00 0.00 0.01 0.00
0.07 0.01 0.00 0.00 0.00 0.00 0.00 0.00 0.00 0.00 0.00 0.00 0.00 0.00 0.00 0.00 0.00 0.00 0.01 0.01 0.07 0.01 0.00 0.00 0.00 0.00 0.00 0.00 0.00 0.00 0.00 0.00 0.00
0.05 0.01 0.00 0.00 0.00 0.00 0.00 0.00 0.00 0.00 0.00 0.00 0.00 0.00 0.00 0.00 0.00 0.00 0.00 0.00 0.04 0.02 0.00 0.00 0.00 0.00 0.00 0.00 0.00 0.00 0.00 0.00 0.00
0.01 0.00 0.00 0.00 0.00 0.00 0.00 0.00 0.00 0.00 0.00 0.00 0.00 0.00 0.00 0.00 0.00 0.00 0.00 0.00 0.00 0.01 0.00 0.00 0.00 0.00 0.00 0.00 0.00 0.00 0.00 0.00 0.00
0.05 0.06 0.01 0.00 0.01 0.01 0.01 0.00 0.00 0.00 0.00 0.00 0.00 0.00 0.00 0.00 0.00 0.00 0.00 0.00 0.00 0.00 0.00 0.00 0.00 0.00 0.00 0.00 0.00 0.00 0.00 0.00 0.00
0.11 0.19 0.14 0.08 0.04 0.02 0.02 0.02 0.01 0.00 0.00 0.00 0.00 0.00 0.00 0.00 0.00 0.00 0.00 0.00 0.00 0.01 0.01 0.00 0.00 0.00 0.00 0.00 0.00 0.00 0.00 0.00 0.00
0.07 0.10 0.14 0.23 0.24 0.13 0.12 0.07 0.05 0.02 0.01 0.00 0.00 0.00 0.00 0.00 0.00 0.00 0.00 0.00 0.00 0.00 0.01 0.01 0.00 0.00 0.00 0.00 0.00 0.00 0.00 0.00 0.00
0.08 0.07 0.10 0.09 0.15 0.17 0.21 0.19 0.14 0.13 0.10 0.07 0.03 0.00 0.00 0.00 0.00 0.00 0.00 0.00 0.00 0.00 0.00 0.02 0.02 0.01 0.00 0.00 0.00 0.00 0.00 0.00 0.00
0.09 0.07 0.06 0.05 0.07 0.07 0.12 0.17 0.16 0.16 0.18 0.10 0.12 0.09 0.05 0.02 0.00 0.00 0.00 0.00 0.00 0.00 0.00 0.00 0.01 0.02 0.02 0.01 0.00 0.00 0.00 0.00 0.01
0.14 0.11 0.11 0.07 0.10 0.15 0.15 0.13 0.14 0.14 0.16 0.18 0.23 0.25 0.18 0.14 0.09 0.05 0.01 0.00 0.00 0.00 0.00 0.00 0.00 0.01 0.02 0.06 0.07 0.06 0.08 0.10 0.08
0.16 0.17 0.10 0.27 0.32 0.34 0.26 0.25 0.16 0.11 0.14 0.12 0.14 0.17 0.28 0.27 0.19 0.16 0.10 0.02 0.00 0.01 0.01 0.00 0.00 0.00 0.00 0.01 0.03 0.10 0.10 0.08 0.05
0.08 0.12 0.15 0.27 0.34 0.35 0.31 0.34 0.31 0.26 0.27 0.28 0.23 0.16 0.15 0.23 0.30 0.27 0.22 0.13 0.07 0.02 0.02 0.03 0.03 0.01 0.00 0.00 0.01 0.03 0.05 0.05 0.04
0.08 0.09 0.10 0.16 0.20 0.21 0.24 0.23 0.28 0.31 0.35 0.34 0.30 0.28 0.28 0.27 0.26 0.34 0.37 0.34 0.28 0.21 0.16 0.11 0.08 0.08 0.04 0.00 0.00 0.00 0.02 0.03 0.03
0.05 0.07 0.09 0.10 0.10 0.11 0.20 0.21 0.21 0.21 0.27 0.34 0.32 0.32 0.53 0.75 0.77 0.68 0.61 0.59 0.56 0.62 0.46 0.24 0.10 0.07 0.06 0.02 0.01 0.00 0.00 0.02 0.03
0.01 0.03 0.06 0.09 0.09 0.11 0.13 0.19 0.18 0.13 0.15 0.21 0.21 0.19 0.17 0.29 0.43 0.47 0.34 0.26 0.34 0.34 0.40 0.43 0.28 0.13 0.05 0.03 0.02 0.01 0.00 0.00 0.02
0.00 0.01 0.03 0.06 0.09 0.09 0.11 0.16 0.21 0.18 0.12 0.14 0.21 0.13 0.04 0.04 0.05 0.08 0.13 0.14 0.14 0.14 0.16 0.20 0.23 0.18 0.11 0.07 0.04 0.04 0.04 0.02 0.01
0.00 0.00 0.01 0.03 0.06 0.08 0.10 0.14 0.18 0.22 0.22 0.17 0.15 0.13 0.10 0.08 0.05 0.07 0.14 0.16 0.17 0.19 0.17 0.14 0.17 0.21 0.16 0.15 0.14 0.16 0.16 0.13 0.02
0.00 0.00 0.01 0.02 0.04 0.07 0.12 0.14 0.15 0.19 0.27 0.25 0.22 0.24 0.31 0.29 0.21 0.12 0.04 0.04 0.08 0.15 0.15 0.12 0.09 0.08 0.06 0.03 0.04 0.07 0.07 0.07 0.02